Regional Weather Roundup
Issued by NWS

Home | Current Version | Previous Version | Text Only | Print | Product List | Glossary Off
Versions: 1 2 3 4 5 6 7 8 9 10 11 12 13 14 15 16 17 18 19 20 21 22 23 24 25 26 27 28 29 30 31 32 33 34 35 36 37 38 39 40 41 42 43 44 45 46 47 48 49 50

000
ASUS43 KLMK 020102
RWRKY
KENTUCKY REGIONAL WEATHER ROUNDUP
NATIONAL WEATHER SERVICE LOUISVILLE KY
900 PM EDT WED OCT 01 2014

NOTE "FAIR" INDICATES FEW OR NO CLOUDS BELOW 12,000 FEET
WITH NO SIGNIFICANT WEATHER AND/OR OBSTRUCTIONS TO VISIBILITY.

KYZ001>023-026-027-061>063-070>075-020200-
WESTERN AND SOUTH CENTRAL KENTUCKY

CITY           SKY/WX    TMP DP  RH WIND       PRES   REMARKS
PADUCAH        CLEAR     76  60  57 S6        29.89R
HENDERSON      NOT AVBL
OWENSBORO      CLEAR     74  57  55 SE5       29.93R
HOPKINSVILLE   CLEAR     79  58  49 S6        29.94R
BOWLING GREEN  CLEAR     70  56  61 E5        29.95R
GLASGOW        NOT AVBL
$$

KYZ024-025-028>034-038-045-046-053-020200-
NORTH CENTRAL KENTUCKY

CITY           SKY/WX    TMP DP  RH WIND       PRES   REMARKS
LOUISVILLE/SDF PTCLDY    74  56  53 SE7       29.95R
LOUISVILLE/LOU CLEAR     74  57  55 E5        29.96R
FORT KNOX      CLEAR     68  61  77 E2        29.96R
$$

KYZ035>037-039>044-047>052-055>060-089>105-020200-
NORTHEAST KENTUCKY

CITY           SKY/WX    TMP DP  RH WIND       PRES   REMARKS
LEXINGTON      PTCLDY    70  59  68 E6        30.00R
COVINGTON      PTCLDY    67  52  58 E6        30.00R
FRANKFORT      CLEAR     66  59  78 CALM      29.98R
$$

KYZ054-064>069-076>088-106>120-020200-
SOUTHEAST KENTUCKY

CITY           SKY/WX    TMP DP  RH WIND       PRES   REMARKS
JACKSON        CLEAR     70  60  70 CALM      30.03R
LONDON         CLEAR     69  58  67 CALM      30.02R
SOMERSET       CLEAR     64  59  82 CALM      30.02R
MIDDLESBORO    CLEAR     64  58  80 CALM      30.04R
MONTICELLO     CLEAR     60  56  87 CALM      30.02R
$$



USA.gov is the U.S. government's official web portal to all federal, state and local government web resources and services.